TimePST,TemperatureF,Dew PointF,Humidity,Sea Level PressureIn,VisibilityMPH,Wind Direction,Wind SpeedMPH,Gust SpeedMPH,PrecipitationIn,Events,Conditions,WindDirDegrees,DateUTC
12:10 AM,50.0,46.4,87,30.45,10.0,South,3.5,-,N/A,,Clear,170,2013-03-01 08:10:00
12:30 AM,50.0,48.2,94,30.44,10.0,South,4.6,-,N/A,,Mostly Cloudy,180,2013-03-01 08:30:00
1:10 AM,50.0,48.2,94,30.45,7.0,South,4.6,-,N/A,,Overcast,170,2013-03-01 09:10:00
1:30 AM,50.0,48.2,94,30.45,8.0,SSW,3.5,-,N/A,,Overcast,200,2013-03-01 09:30:00
1:50 AM,50.0,48.2,94,30.45,10.0,Calm,Calm,-,N/A,,Overcast,0,2013-03-01 09:50:00
2:10 AM,48.2,48.2,100,30.44,10.0,Calm,Calm,-,N/A,,Overcast,0,2013-03-01 10:10:00
2:30 AM,48.2,46.4,93,30.44,10.0,Calm,Calm,-,N/A,,Overcast,0,2013-03-01 10:30:00
2:50 AM,48.2,46.4,93,30.44,10.0,Calm,Calm,-,N/A,,Overcast,0,2013-03-01 10:50:00
3:10 AM,48.2,46.4,93,30.44,10.0,Calm,Calm,-,N/A,,Overcast,0,2013-03-01 11:10:00
3:30 AM,48.2,46.4,93,30.44,10.0,Calm,Calm,-,N/A,,Overcast,0,2013-03-01 11:30:00
3:50 AM,48.2,46.4,93,30.44,10.0,Calm,Calm,-,N/A,,Overcast,0,2013-03-01 11:50:00
4:10 AM,48.2,46.4,93,30.44,0.8,Calm,Calm,-,N/A,,Overcast,0,2013-03-01 12:10:00
4:30 AM,48.2,46.4,93,30.44,0.2,Calm,Calm,-,N/A,Fog,Fog,0,2013-03-01 12:30:00
4:50 AM,46.4,46.4,100,30.43,0.5,SSE,3.5,-,N/A,Fog,Fog,150,2013-03-01 12:50:00
5:10 AM,48.2,48.2,100,30.44,0.5,SSW,3.5,-,N/A,Fog,Fog,200,2013-03-01 13:10:00
5:30 AM,48.2,48.2,100,30.43,3.0,SSW,3.5,-,N/A,,Overcast,200,2013-03-01 13:30:00
5:50 AM,48.2,48.2,100,30.43,0.2,Calm,Calm,-,N/A,Fog,Fog,0,2013-03-01 13:50:00
6:10 AM,48.2,48.2,100,30.43,0.2,Calm,Calm,-,N/A,Fog,Fog,0,2013-03-01 14:10:00
6:30 AM,48.2,48.2,100,30.42,0.2,Calm,Calm,-,N/A,Fog,Fog,0,2013-03-01 14:30:00
6:47 AM,48.2,48.2,100,30.42,0.2,Calm,Calm,-,N/A,Fog,Fog,0,2013-03-01 14:47:00
6:50 AM,48.2,48.2,100,30.42,0.2,Calm,Calm,-,N/A,Fog,Fog,0,2013-03-01 14:50:00
7:47 AM,48.2,48.2,100,30.41,0.2,Calm,Calm,-,N/A,Fog,Fog,0,2013-03-01 15:47:00
8:59 AM,48.2,48.2,100,30.41,0.5,Calm,Calm,-,N/A,Fog,Fog,0,2013-03-01 16:59:00
9:17 AM,50.0,50.0,100,30.40,4.0,Calm,Calm,-,N/A,,Mostly Cloudy,0,2013-03-01 17:17:00
11:47 AM,60.8,50.0,68,30.38,10.0,NNW,4.6,-,N/A,,Partly Cloudy,340,2013-03-01 19:47:00
12:47 PM,64.4,50.0,59,30.34,10.0,North,3.5,-,N/A,,Partly Cloudy,360,2013-03-01 20:47:00
1:51 PM,66.2,50.0,56,30.30,10.0,NNE,3.5,-,N/A,,Mostly Cloudy,30,2013-03-01 21:51:00
2:52 PM,68.0,50.0,52,30.28,10.0,NNE,3.5,-,N/A,,Mostly Cloudy,30,2013-03-01 22:52:00
3:58 PM,69.8,50.0,49,30.26,10.0,North,5.8,-,N/A,,Mostly Cloudy,360,2013-03-01 23:58:00
4:57 PM,69.8,48.2,46,30.25,10.0,NW,9.2,-,N/A,,Mostly Cloudy,320,2013-03-02 00:57:00
5:52 PM,66.2,46.4,49,30.25,10.0,WNW,9.2,-,N/A,,Mostly Cloudy,300,2013-03-02 01:52:00
6:50 PM,64.4,48.2,56,30.26,10.0,Calm,Calm,-,N/A,,Clear,0,2013-03-02 02:50:00
7:53 PM,60.8,53.6,77,30.27,10.0,Calm,Calm,-,N/A,,Clear,0,2013-03-02 03:53:00
8:47 PM,59.0,48.2,67,30.27,10.0,Calm,Calm,-,N/A,,Clear,0,2013-03-02 04:47:00
9:10 PM,59.0,48.2,67,30.27,10.0,Calm,Calm,-,N/A,,Clear,0,2013-03-02 05:10:00
9:30 PM,57.2,53.6,88,30.27,10.0,Calm,Calm,-,N/A,,Clear,0,2013-03-02 05:30:00
9:50 PM,55.4,50.0,82,30.27,10.0,South,3.5,-,N/A,,Clear,170,2013-03-02 05:50:00
10:10 PM,57.2,48.2,72,30.27,10.0,SE,3.5,-,N/A,,Clear,140,2013-03-02 06:10:00
10:30 PM,55.4,50.0,82,30.27,10.0,Calm,Calm,-,N/A,,Clear,0,2013-03-02 06:30:00
10:50 PM,55.4,50.0,82,30.27,10.0,Calm,Calm,-,N/A,,Clear,0,2013-03-02 06:50:00
11:10 PM,55.4,48.2,77,30.26,10.0,Calm,Calm,-,N/A,,Clear,0,2013-03-02 07:10:00
11:30 PM,55.4,46.4,72,30.26,10.0,WNW,3.5,-,N/A,,Clear,300,2013-03-02 07:30:00
11:50 PM,55.4,46.4,72,30.26,10.0,Calm,Calm,-,N/A,,Clear,0,2013-03-02 07:50:00